Regional Weather Roundup
Issued by NWS

Home | Current Version | Previous Version | Graphics & Text | Print | Product List | Glossary On
Versions: 1 2 3 4 5 6 7 8 9 10 11 12 13 14 15 16 17 18 19 20 21 22 23 24 25 26 27 28 29 30 31 32 33 34 35 36 37 38 39 40 41 42 43 44 45 46 47 48 49 50
488
ASUS43 KMPX 281910
RWRMN
WEATHER ROUNDUP FOR MINNESOTA
NATIONAL WEATHER SERVICE TWIN CITIES/CHANHASSEN MN
200 PM CDT THU JUL 28 2016


NOTE: "FAIR" INDICATES FEW OR NO CLOUDS BELOW 12,000 FEET WITH NO
SIGNIFICANT WEATHER AND/OR OBSTRUCTIONS TO VISIBILITY. N/A MEANS
CURRENT SKY AND/OR WEATHER CONDITIONS ARE NOT AVAILABLE.

MNZ060>063-068>070-282000-
   Twin Cities Metro

CITY           SKY/WX    TMP DP  RH WIND       PRES   REMARKS
TWIN CITIES    CLOUDY    74  62  66 NE12      30.02F
ST PAUL        CLOUDY    73  62  68 N12       30.03S
CRYSTAL        CLOUDY    76  58  53 NE12      30.02F
BLAINE         PTSUNNY   75  61  60 NE8       30.03F
LAKEVILLE      PTSUNNY   72  64  78 N14G21    30.02S
EDEN PRAIRIE   PTSUNNY   75  63  66 NE9       30.02F
LAKEVILLE      PTSUNNY   72  64  78 N14G21    30.02S
SOUTH ST PAUL  PTSUNNY   73  62  68 N9        30.02S
LAKE ELMO      CLOUDY    72  63  73 N9G16     30.04S
$$
MNZ001>005-007-008-013>017-022>024-027-028-282000-
   Northwest Minnesota

CITY           SKY/WX    TMP DP  RH WIND       PRES   REMARKS
BEMIDJI        MOSUNNY   73  54  49 CALM      30.10F
HALLOCK        SUNNY     72  54  53 N8        30.12F
ROSEAU         MOSUNNY   72  57  60 NE6       30.13F
WARROAD        SUNNY     72  57  60 NE7       30.14F
THIEF RVR FALL PTSUNNY   72  58  61 NW9       30.13F
CROOKSTON      MOSUNNY   75  59  57 NE7       30.11F
FOSSTON        MOSUNNY   75  59  57 N9        30.11F
DETROIT LAKES  MOSUNNY   73  61  64 W3        30.10F
MOORHEAD       MOSUNNY   73  61  64 N3        30.09
PARK RAPIDS    CLOUDY    79  54  41 NE7       30.09F
MAHNOMEN       MOCLDY    77  58  52 N9        30.09F
$$
MNZ006-009>011-018-025>026-282000-
   North Central Minnesota

CITY           SKY/WX    TMP DP  RH WIND       PRES   REMARKS
BAUDETTE       MOSUNNY   75  57  53 N10       30.12S
FLAG ISLAND    SUNNY     68  52  56 CALM      30.13F
INTL FALLS     SUNNY     74  55  51 VRB3      30.11F
WASKISH        SUNNY     75  57  53 W6        30.11F
BIG FORK       PTSUNNY   73  55  53 CALM      30.10F
LONGVILLE      CLOUDY    75  57  53 N5        30.09F
GRAND RAPIDS   PTSUNNY   73  56  54 N3        30.11F
CRANE LAKE     MOSUNNY   73  55  53 N2        30.12F
ORR            PTSUNNY   70  57  64 CALM      30.08F
COOK           MOSUNNY   73  55  53 CALM      30.11F
WALKER         FAIR      74  55  50 NE7       30.09F
$$
MNZ012-019>021-037-282000-
   Northeast Minnesota

CITY           SKY/WX    TMP DP  RH WIND       PRES   REMARKS
DULUTH         MOSUNNY   72  54  53 E15       30.10F
ELY            SUNNY     72  50  46 NE6       30.11F
HIBBING        PTSUNNY   73  54  51 N8        30.09F
EVELETH        SUNNY     75  49  40 CALM      30.11F
DULUTH HARBOR  MOSUNNY   64  61  88 NE18      30.10S
TWO HARBORS    MOSUNNY   75  57  53 E12G18    30.09S
SILVER BAY     SUNNY     72  55  56 NE8       30.10F
GRAND MARAIS     N/A     67  56  67 E6        30.12S
$$
MNZ029>031-032-039>041-046>048-054>057-064-282000-
   West Central Minnesota

CITY           SKY/WX    TMP DP  RH WIND       PRES   REMARKS
FERGUS FALLS   PTSUNNY   75  55  50 E3        30.09S
WHEATON        CLOUDY    75  63  64 E5        30.10S
MORRIS         PTSUNNY   75  57  53 E6        30.08S
ALEXANDRIA     CLOUDY    75  55  49 VRB7G17   30.10F
ELBOW LAKE     FAIR      75  58  54 SE3       30.09F
WADENA         MOSUNNY   75  59  57 NE8       30.08F
GLENWOOD       PTSUNNY   72  57  60 NE13      30.09S
APPLETON       PTSUNNY   75  57  53 NE3       30.08R
BENSON         CLOUDY    75  55  50 E8        30.08R
ORTONVILLE     MOSUNNY   73  55  53 E6        30.09R
MADISON        CLOUDY    73  57  56 E7        30.08S
WILLMAR        FAIR      73  57  56 NE13      30.08S
$$
MNZ033>034-036-042>043-049>051-058-059-282000-
   Central Minnesota

CITY           SKY/WX    TMP DP  RH WIND       PRES   REMARKS
ST CLOUD       PTSUNNY   74  58  57 NE7G17    30.06F
SAUK CENTRE    FAIR      71  56  58 E10       30.09S
PAYNESVILLE    MOSUNNY   74  56  52 NE10G17   30.07F
AITKIN         CLOUDY    75  54  46 CALM      30.08F
PINE RIVER     CLOUDY    73  61  64 CALM      30.11F
BRAINERD       CLOUDY    74  57  55 NE7       30.09F
STAPLES        PTSUNNY   73  55  53 E8        30.09F
LONG PRAIRIE   FAIR      72  55  56 NE6       30.09F
LITTLE FALLS   CLOUDY    70  54  56 NE3       30.09S
LITCHFIELD     CLOUDY    75  63  64 N12       30.06S
BUFFALO        MOSUNNY   74  57  55 NE12      30.05F
MAPLE LAKE     MOSUNNY   75  60  60 N10       30.06F
HUTCHINSON     PTSUNNY   75  64  69 N8        30.05S
$$
MNZ037-044-045-052-053-282000-
   East Central Minnesota

CITY           SKY/WX    TMP DP  RH WIND       PRES   REMARKS
PRINCETON      MOSUNNY   75  61  60 NE10G18   30.06F
MORA           CLOUDY    72  54  53 NE7       30.08F
CAMBRIDGE      CLOUDY    73  57  56 N7        30.04F
RUSH CITY      CLOUDY    71  58  63 NE5       30.06S
MOOSE LAKE     PTSUNNY   70  54  56 NE10      30.07F
HINCKLEY       FAIR      73  59  60 N13G18    30.06F
CLOQUET        CLOUDY    70  52  52 E6        30.10F
MCGREGOR       CLOUDY    72  55  56 E5        30.09F
$$
MNZ071>073-080-081-089-090-097-098-282000-
   Southwest Minnesota

CITY           SKY/WX    TMP DP  RH WIND       PRES   REMARKS
MONTEVIDEO     CLOUDY    77  61  57 E9        30.09S
GRANITE FALLS  CLOUDY    74  61  64 NE8       30.09R
CANBY          PTSUNNY   74  61  63 NE7       30.09F
MARSHALL       CLOUDY    73  63  70 NE7       30.07F
REDWOOD FALLS  CLOUDY    75  62  64 N8        30.05S
OLIVIA         MOSUNNY   73  61  64 NE7       30.05S
PIPESTONE      PTSUNNY   75  61  60 NE8       30.07F
WINDOM         PTSUNNY   72  63  73 N13       30.06R
WORTHINGTON    CLOUDY    73  63  70 N9        30.07S
JACKSON        PTSUNNY   72  61  68 VRB6      30.06R
TRACY          PTSUNNY   72  65  77 N7        30.07F
SLAYTON        PTSUNNY   73  62  69 N9        30.08F
$$
MNZ065>067-074>077-082>085-091>093-282000-
   South Central Minnesota

CITY           SKY/WX    TMP DP  RH WIND       PRES   REMARKS
MANKATO        CLOUDY    70  61  73 N13       30.03F
NEW ULM        CLOUDY    72  63  73 N6        30.03F
ST JAMES       PTSUNNY   68  59  73 N8        30.04S
FAIRMONT       CLOUDY    72  63  73 N10       30.02S
GLENCOE        CLOUDY    73  66  78 N7        30.03F
FARIBAULT      CLOUDY    70  64  83 N7        30.02F
OWATONNA       PTSUNNY   70  63  78 N10G16    30.01F
WASECA         CLOUDY    70  64  83 N10G17    30.02F
ALBERT LEA     CLOUDY    72  64  78 N9G17     29.99F
$$
MNZ078>079-086>088-094>096-282000-
   Southeast Minnesota

CITY           SKY/WX    TMP DP  RH WIND       PRES   REMARKS
ROCHESTER      LGT RAIN  69  67  93 NE14      29.99S
RED WING       CLOUDY    72  64  78 NE5       29.99S
STANTON        CLOUDY    73  64  73 VRB8      29.99F
DODGE CENTER   CLOUDY    70  64  83 NE12      30.00F
WINONA         CLOUDY    70  63  78 N6        29.98S
AUSTIN         PTSUNNY   72  64  78 N13G18    29.98F
PRESTON        CLOUDY    67  63  87 N8G18     29.98S
$$
ABBREVIATIONS USED IN REMARKS
   TC - TEMPERATURES IN CELSIUS
  WCI - WIND CHILL INDEX
   HX - HEAT INDEX
  VSB - VISIBILITY
$$




USA.gov is the U.S. government's official web portal to all federal, state and local government web resources and services.